QPF
0.00 0.00 0.00 0.00 0.00 0.00 0.00 0.00 0.00 0.00 0.00 0.00 0.00 0.00 0.00 0.00 0.00 0.00 0.00 0.00 0.00 0.00 0.00 0.00 0.00 0.00 0.00 0.00 0.00 0.00 0.00 0.00 0.00 0.00 0.00 0.00 0.00 0.00 0.00 0.00 0.00 0.00 0.00 0.00
0.00 0.00 0.00 0.00 0.00 0.00 0.00 0.00 0.00 0.00 0.00 0.00 0.00 0.00 0.00 0.00 0.00 0.00 0.00 0.00 0.00 0.00 0.00 0.00 0.00 0.00 0.00 0.00 0.00 0.00 0.00 0.00 0.00 0.00 0.00 0.00 0.00 0.00 0.00 0.00 0.00 0.00 0.00 0.00
0.00 0.00 0.00 0.00 0.00 0.00 0.00 0.00 0.00 0.00 0.00 0.00 0.00 0.00 0.00 0.00 0.00 0.00 0.00 0.00 0.00 0.00 0.00 0.00 0.00 0.00 0.00 0.00 0.00 0.00 0.00 0.00 0.00 0.00 0.00 0.00 0.00 0.00 0.00 0.00 0.00 0.00 0.00 0.00
0.00 0.00 0.00 0.00 0.00 0.00 0.00 0.00 0.00 0.00 0.00 0.00 0.00 0.00 0.00 0.00 0.00 0.00 0.00 0.00 0.00 0.00 0.00 0.00 0.00 0.00 0.00 0.00 0.00 0.00 0.00 0.00 0.00 0.00 0.00 0.00 0.00 0.00 0.00 0.00 0.00 0.00 0.00 0.00
0.00 0.00 0.00 0.00 0.00 0.00 0.00 0.00 0.00 0.00 0.00 0.00 0.00 0.00 0.00 0.00 0.00 0.00 0.00 0.00 0.00 0.00 0.00 0.00 0.00 0.00 0.00 0.00 0.00 0.00 0.00 0.00 0.00 0.00 0.00 0.00 0.00 0.00 0.00 0.00 0.00 0.00 0.00 0.00
0.00 0.00 0.00 0.00 0.00 0.00 0.00 0.00 0.00 0.00 0.00 0.00 0.00 0.00 0.00 0.00 0.00 0.00 0.00 0.00 0.00 0.00 0.00 0.00 0.00 0.00 0.00 0.00 0.00 0.00 0.00 0.00 0.00 0.00 0.00 0.00 0.00 0.00 0.00 0.00 0.00 0.00 0.00 0.00
0.00 0.00 0.00 0.00 0.00 0.00 0.00 0.00 0.00 0.00 0.00 0.00 0.00 0.00 0.00 0.00 0.00 0.00 0.00 0.00 0.00 0.00 0.00 0.00 0.00 0.00 0.00 0.00 0.00 0.00 0.00 0.00 0.00 0.00 0.00 0.00 0.00 0.00 0.00 0.00 0.00 0.00 0.00 0.00
0.00 0.00 0.00 0.00 0.00 0.00 0.00 0.00 0.00 0.00 0.00 0.00 0.00 0.00 0.00 0.00 0.00 0.00 0.00 0.00 0.00 0.00 0.00 0.00 0.00 0.00 0.00 0.00 0.00 0.00 0.00 0.00 0.00 0.00 0.00 0.00 0.00 0.00 0.00 0.00 0.00 0.00 0.00 0.00
0.00 0.00 0.00 0.00 0.00 0.00 0.00 0.00 0.00 0.00 0.00 0.00 0.00 0.00 0.00 0.00 0.00 0.00 0.00 0.00 0.00 0.00 0.00 0.00 0.00 0.00 0.00 0.00 0.00 0.00 0.00 0.00 0.00 0.00 0.00 0.00 0.00 0.00 0.00 0.00 0.00 0.00 0.00 0.00
0.00 0.00 0.00 0.00 0.00 0.00 0.00 0.00 0.00 0.00 0.00 0.00 0.00 0.00 0.00 0.00 0.00 0.00 0.00 0.00 0.00 0.00 0.00 0.00 0.00 0.00 0.00 0.00 0.00 0.00 0.00 0.00 0.00 0.00 0.00 0.00 0.00 0.00 0.00 0.00 0.00 0.00 0.00 0.00
0.00 0.00 0.00 0.00 0.00 0.00 0.00 0.00 0.00 0.00 0.00 0.00 0.00 0.00 0.00 0.00 0.00 0.00 0.00 0.00 0.00 0.00 0.00 0.00 0.00 0.00 0.00 0.00 0.00 0.00 0.00 0.00 0.00 0.00 0.00 0.00 0.00 0.00 0.00 0.00 0.00 0.00 0.00 0.00
0.00 0.00 0.00 0.00 0.00 0.00 0.00 0.00 0.00 0.00 0.00 0.00 0.00 0.00 0.00 0.00 0.00 0.00 0.00 0.00 0.00 0.00 0.00 0.00 0.00 0.00 0.00 0.00 0.00 0.00 0.00 0.00 0.00 0.00 0.00 0.00 0.00 0.00 0.00 0.00 0.00 0.00 0.00 0.00
0.00 0.00 0.00 0.00 0.00 0.00 0.00 0.00 0.00 0.00 0.00 0.00 0.00 0.00 0.00 0.00 0.00 0.00 0.00 0.00 0.00 0.00 0.00 0.00 0.00 0.00 0.00 0.00 0.00 0.00 0.00 0.00 0.00 0.00 0.00 0.00 0.00 0.00 0.00 0.00 0.00 0.00 0.00 0.00
0.00 0.00 0.00 0.00 0.00 0.00 0.00 0.00 0.00 0.00 0.00 0.00 0.00 0.00 0.00 0.00 0.00 0.00 0.00 0.00 0.00 0.00 0.00 0.00 0.00 0.00 0.00 0.00 0.00 0.00 0.00 0.00 0.00 0.00 0.00 0.00 0.00 0.00 0.00 0.00 0.00 0.00 0.00 0.00
0.00 0.00 0.00 0.00 0.00 0.00 0.00 0.00 0.00 0.00 0.00 0.00 0.00 0.00 0.00 0.00 0.00 0.00 0.00 0.00 0.00 0.00 0.00 0.00 0.00 0.00 0.00 0.00 0.00 0.00 0.00 0.00 0.00 0.00 0.00 0.00 0.00 0.00 0.00 0.00 0.00 0.00 0.00 0.00
0.00 0.00 0.00 0.00 0.00 0.00 0.00 0.00 0.00 0.00 0.00 0.00 0.00 0.00 0.00 0.00 0.00 0.00 0.00 0.00 0.00 0.00 0.00 0.00 0.00 0.00 0.00 0.00 0.00 0.00 0.00 0.00 0.00 0.00 0.00 0.00 0.00 0.00 0.00 0.00 0.00 0.00 0.00 0.00
0.00 0.00 0.00 0.00 0.00 0.00 0.00 0.00 0.00 0.00 0.00 0.00 0.00 0.00 0.00 0.00 0.00 0.00 0.00 0.00 0.00 0.00 0.00 0.00 0.00 0.00 0.00 0.00 0.00 0.00 0.00 0.00 0.00 0.00 0.00 0.00 0.00 0.00 0.01 0.01 0.03 0.03 0.02 0.02
0.00 0.00 0.00 0.00 0.00 0.00 0.00 0.00 0.00 0.00 0.00 0.00 0.00 0.00 0.00 0.00 0.00 0.00 0.00 0.00 0.00 0.00 0.00 0.00 0.00 0.00 0.00 0.00 0.00 0.00 0.00 0.00 0.00 0.00 0.00 0.00 0.00 0.00 0.00 0.00 0.00 0.00 0.01 0.02
0.00 0.00 0.00 0.00 0.00 0.00 0.00 0.00 0.00 0.00 0.00 0.00 0.00 0.00 0.00 0.00 0.00 0.00 0.00 0.00 0.00 0.00 0.00 0.00 0.00 0.00 0.00 0.00 0.00 0.00 0.00 0.00 0.00 0.00 0.00 0.00 0.00 0.00 0.00 0.00 0.00 0.00 0.00 0.00
0.00 0.00 0.00 0.00 0.00 0.00 0.00 0.00 0.00 0.00 0.00 0.00 0.00 0.00 0.00 0.00 0.00 0.00 0.00 0.00 0.00 0.00 0.00 0.00 0.00 0.00 0.00 0.00 0.00 0.00 0.00 0.00 0.00 0.00 0.00 0.00 0.00 0.00 0.00 0.00 0.00 0.00 0.00 0.00
0.00 0.00 0.00 0.00 0.00 0.00 0.00 0.00 0.00 0.00 0.00 0.00 0.00 0.00 0.00 0.00 0.00 0.00 0.00 0.00 0.00 0.00 0.00 0.00 0.00 0.00 0.00 0.00 0.00 0.00 0.00 0.00 0.00 0.00 0.00 0.00 0.00 0.00 0.00 0.00 0.00 0.00 0.00 0.00
0.00 0.00 0.00 0.00 0.00 0.00 0.00 0.00 0.00 0.00 0.00 0.00 0.00 0.00 0.00 0.00 0.00 0.00 0.00 0.00 0.00 0.00 0.00 0.00 0.00 0.00 0.00 0.00 0.00 0.00 0.00 0.00 0.00 0.00 0.00 0.00 0.00 0.00 0.00 0.00 0.00 0.00 0.00 0.00
0.00 0.00 0.00 0.00 0.00 0.00 0.00 0.00 0.00 0.00 0.00 0.00 0.00 0.00 0.00 0.00 0.00 0.00 0.00 0.00 0.00 0.00 0.00 0.00 0.00 0.00 0.00 0.00 0.00 0.00 0.00 0.00 0.00 0.00 0.00 0.00 0.00 0.00 0.00 0.00 0.00 0.00 0.00 0.00
0.00 0.00 0.00 0.00 0.00 0.00 0.00 0.00 0.00 0.00 0.00 0.00 0.00 0.00 0.00 0.00 0.00 0.00 0.00 0.00 0.00 0.00 0.00 0.00 0.00 0.00 0.00 0.00 0.00 0.00 0.00 0.00 0.00 0.00 0.00 0.00 0.00 0.00 0.00 0.00 0.00 0.00 0.00 0.00
0.00 0.00 0.00 0.00 0.00 0.00 0.00 0.00 0.00 0.00 0.00 0.00 0.00 0.00 0.00 0.00 0.00 0.00 0.00 0.00 0.00 0.00 0.00 0.00 0.00 0.00 0.00 0.00 0.00 0.00 0.00 0.00 0.00 0.00 0.00 0.00 0.00 0.00 0.00 0.00 0.00 0.00 0.00 0.00
0.00 0.00 0.00 0.00 0.00 0.00 0.00 0.00 0.00 0.00 0.00 0.00 0.00 0.00 0.00 0.00 0.00 0.00 0.00 0.00 0.00 0.00 0.00 0.00 0.00 0.00 0.00 0.00 0.00 0.00 0.00 0.00 0.00 0.00 0.00 0.00 0.00 0.00 0.00 0.00 0.00 0.00 0.00 0.00
MSLP
1001.21 1000.45 999.46 998.75 998.34 998.43 998.83 999.14 999.75 1000.76 1001.48 1001.27 1001.21 1001.65 1003.40 1004.24 1004.63 1005.21 1005.79 1006.61 1007.18 1007.64 1008.21 1008.77 1009.51 1010.07 1010.66 1011.55 1012.56 1013.34 1013.70 1014.31 1014.84 1015.22 1015.35 1015.38 1014.98 1014.99 1014.95 1015.08 1015.79 1016.20 1016.32 1016.48
1000.30 999.75 999.29 999.03 998.66 998.95 999.48 999.03 998.91 1000.26 1001.01 1000.97 1000.70 1001.24 1002.18 1003.77 1004.03 1004.21 1004.81 1005.63 1006.35 1006.98 1007.42 1008.16 1008.96 1009.48 1010.25 1011.19 1012.08 1012.96 1013.57 1014.20 1014.77 1014.79 1015.01 1014.97 1014.86 1014.84 1014.94 1014.75 1015.60 1016.00 1016.19 1016.48
999.49 999.16 999.48 998.89 998.84 998.95 999.13 998.67 998.53 999.54 1000.19 1000.13 1000.48 1000.63 1001.08 1002.61 1003.67 1003.64 1003.95 1004.54 1005.26 1005.95 1006.57 1007.14 1008.01 1008.77 1009.63 1010.52 1011.51 1012.43 1013.34 1013.95 1014.53 1014.63 1014.97 1015.43 1015.49 1015.46 1015.28 1015.14 1015.35 1015.61 1016.06 1016.28
999.44 999.22 999.09 998.95 998.85 998.98 998.53 998.51 998.81 999.84 999.94 998.76 999.68 1001.89 1003.79 1001.88 1002.88 1002.94 1003.15 1003.55 1004.14 1005.01 1005.69 1006.10 1006.92 1008.07 1008.87 1009.87 1010.90 1011.81 1012.89 1013.59 1014.28 1014.67 1014.49 1014.93 1014.98 1014.73 1014.52 1014.63 1014.67 1015.11 1015.76 1016.10
999.47 999.37 999.27 999.24 998.95 999.21 998.65 998.73 999.22 999.41 999.64 998.90 998.46 999.62 1002.19 1001.94 1002.39 1001.99 1002.06 1002.55 1003.14 1003.96 1004.72 1005.38 1006.03 1006.99 1007.88 1009.02 1009.96 1011.07 1012.27 1013.17 1013.76 1014.39 1014.64 1014.75 1015.09 1014.55 1014.73 1014.81 1014.96 1015.47 1015.71 1016.04
999.52 999.47 999.67 999.60 999.35 999.12 999.09 999.04 999.55 999.50 999.09 998.26 997.78 998.70 1002.68 1003.34 1000.57 1000.39 1000.97 1001.18 1002.21 1002.89 1003.82 1004.66 1005.29 1005.88 1007.07 1008.09 1009.11 1010.15 1011.51 1012.61 1013.45 1013.96 1014.64 1014.67 1014.60 1014.77 1014.47 1014.73 1014.80 1014.95 1014.88 1015.44
999.93 999.61 999.96 999.98 999.34 999.03 999.15 999.25 998.84 998.45 997.93 997.26 996.72 997.83 1000.60 1002.61 1000.66 999.55 999.36 999.89 1000.97 1001.93 1003.05 1003.87 1004.59 1005.19 1006.21 1007.31 1008.46 1009.57 1010.91 1012.11 1012.97 1013.46 1013.89 1014.35 1014.61 1014.78 1014.94 1015.21 1014.85 1014.75 1014.67 1014.83
998.44 998.60 999.18 999.41 999.37 998.49 998.91 998.88 998.12 997.33 996.37 995.81 996.14 997.13 998.05 999.13 998.70 999.04 998.75 998.74 1000.15 1001.11 1001.81 1002.83 1003.87 1004.78 1005.76 1006.79 1007.98 1009.25 1010.54 1011.61 1012.33 1012.92 1013.43 1013.90 1014.26 1014.37 1014.55 1014.63 1014.54 1014.24 1014.07 1014.53
997.04 997.24 997.54 998.52 998.97 999.00 998.22 998.44 998.18 996.98 996.10 995.69 995.73 996.54 996.68 997.08 997.58 998.03 998.34 998.57 999.70 1000.40 1001.09 1001.99 1002.95 1004.02 1005.24 1006.47 1007.74 1008.93 1009.98 1010.99 1011.73 1012.21 1012.77 1013.10 1013.54 1013.86 1013.57 1013.94 1014.31 1014.45 1014.53 1014.29
997.63 997.39 997.34 998.07 998.84 998.60 998.19 997.62 997.64 997.21 996.63 995.91 995.50 995.83 995.98 996.81 997.08 997.30 998.26 998.56 999.30 1000.03 1000.78 1001.42 1002.23 1003.32 1004.47 1005.84 1007.33 1008.67 1009.53 1010.43 1010.97 1011.21 1011.88 1012.07 1012.50 1013.18 1013.65 1013.82 1014.18 1014.19 1014.23 1014.51
998.17 997.82 997.06 997.81 998.13 997.76 998.16 997.94 997.40 996.53 996.46 996.10 995.54 995.23 995.03 995.85 996.49 996.94 997.85 998.55 999.03 999.63 1000.41 1000.99 1001.86 1002.96 1003.95 1005.42 1007.14 1008.46 1009.51 1009.94 1010.21 1010.31 1010.75 1011.67 1012.15 1012.53 1013.27 1013.51 1013.82 1014.11 1014.31 1014.55
998.31 997.47 996.90 997.05 997.46 997.81 996.97 997.13 996.63 996.49 996.47 996.19 995.76 995.16 995.34 996.10 997.12 997.71 998.05 998.94 999.53 999.52 1000.00 1000.81 1001.54 1002.90 1003.81 1005.12 1006.53 1007.68 1008.85 1009.34 1009.89 1010.51 1011.86 1011.97 1012.40 1012.34 1012.66 1013.05 1013.25 1013.65 1013.93 1014.19
998.23 998.04 996.73 996.11 996.73 996.99 996.91 996.93 996.53 996.11 995.88 995.64 995.39 995.17 995.70 996.34 997.65 998.29 998.54 999.61 1000.30 1000.40 1000.53 1000.90 1001.53 1003.07 1004.09 1005.38 1006.49 1007.72 1008.61 1009.33 1010.28 1011.33 1011.55 1011.71 1012.52 1012.66 1012.88 1012.79 1013.01 1013.23 1013.50 1013.75
998.47 997.43 996.62 995.53 995.73 996.03 996.67 996.99 996.60 996.03 995.25 995.01 995.04 995.39 995.68 996.72 997.68 998.81 999.20 999.82 1000.51 1000.84 1001.18 1001.32 1002.35 1003.79 1004.95 1005.99 1007.10 1008.01 1009.03 1009.81 1010.46 1010.82 1011.27 1011.36 1011.91 1012.35 1012.63 1012.64 1012.81 1012.99 1013.33 1013.50
998.38 997.27 996.81 996.17 995.88 995.67 995.42 995.94 996.33 996.01 995.83 995.27 994.86 994.96 995.50 996.18 997.07 998.65 999.60 1000.08 1000.73 1001.10 1001.31 1002.26 1003.33 1004.63 1005.86 1006.90 1007.93 1008.82 1009.52 1010.03 1010.49 1010.98 1011.31 1011.57 1011.91 1012.24 1012.46 1012.70 1012.86 1012.96 1013.00 1013.13
998.01 997.31 996.81 996.24 996.25 996.34 995.96 995.46 995.33 995.72 995.87 995.65 995.50 995.57 996.15 997.15 997.96 998.79 999.79 1000.41 1000.91 1001.36 1002.05 1002.87 1004.04 1005.35 1006.21 1007.26 1008.26 1009.10 1009.58 1010.16 1010.57 1010.88 1011.13 1011.44 1011.92 1012.09 1012.23 1012.47 1012.57 1012.63 1012.72 1012.83
997.51 996.75 996.31 996.18 996.42 996.25 995.79 995.32 995.20 995.29 995.52 995.66 995.65 996.23 997.05 997.68 998.41 999.23 999.92 1000.44 1001.02 1001.69 1002.51 1003.58 1004.71 1005.43 1006.27 1007.27 1008.11 1008.85 1009.52 1010.12 1010.59 1010.77 1010.89 1011.16 1011.43 1011.57 1011.63 1011.92 1012.18 1012.27 1012.36 1012.37
996.70 996.21 996.11 995.79 996.06 995.84 995.09 994.79 994.83 995.08 995.58 995.78 995.94 996.97 997.61 998.36 998.77 999.44 999.88 1000.35 1001.27 1002.33 1003.36 1004.03 1004.53 1005.44 1006.50 1007.17 1008.06 1008.93 1009.55 1010.16 1010.42 1010.58 1010.73 1010.98 1011.17 1011.27 1011.40 1011.57 1011.67 1011.67 1011.72 1011.84
996.64 996.25 995.90 995.63 995.92 995.30 995.09 995.23 995.61 995.67 996.01 996.13 995.96 996.51 997.65 998.54 998.65 999.54 999.78 1000.68 1001.68 1002.73 1003.63 1003.91 1004.67 1005.54 1006.58 1008.22 1008.97 1009.08 1009.41 1009.99 1010.33 1010.53 1010.48 1010.65 1010.90 1011.07 1011.28 1011.36 1011.48 1011.54 1011.49 1011.42
996.20 996.29 995.90 995.66 995.47 994.95 994.22 994.44 995.12 995.88 996.94 996.37 996.69 996.71 997.71 998.26 998.53 999.16 1000.03 1001.03 1002.12 1003.13 1003.51 1003.98 1004.86 1006.20 1007.16 1007.62 1008.92 1009.07 1009.37 1009.70 1009.90 1010.12 1010.22 1010.55 1010.84 1011.10 1011.26 1011.41 1011.43 1011.47 1011.36 1011.08
995.89 995.59 995.30 995.77 995.15 994.69 994.52 995.21 996.07 997.51 1001.25 1000.00 998.53 998.00 997.81 998.19 998.13 998.88 1000.12 1001.38 1002.55 1003.14 1003.77 1004.29 1005.14 1005.89 1006.76 1007.53 1008.33 1008.67 1008.98 1009.36 1009.65 1009.93 1010.33 1010.61 1010.91 1011.16 1011.31 1011.40 1011.41 1011.35 1011.27 1011.16
995.38 995.51 994.86 994.97 995.20 994.91 995.49 995.86 996.23 998.75 1000.14 999.66 998.66 998.74 998.48 998.56 998.99 999.53 1000.64 1001.81 1002.70 1003.43 1003.88 1004.60 1005.20 1006.10 1006.69 1007.43 1007.97 1008.25 1008.81 1009.29 1009.75 1010.23 1010.50 1010.95 1011.17 1010.99 1010.87 1011.31 1011.38 1011.29 1011.07 1010.71
994.96 994.70 994.63 994.47 994.79 995.35 995.32 996.15 996.99 998.15 998.52 998.75 998.62 998.65 998.69 999.24 999.88 1000.62 1001.47 1002.29 1003.13 1003.79 1004.28 1004.73 1005.34 1006.28 1006.87 1007.65 1008.09 1008.45 1009.04 1009.40 1009.92 1010.46 1010.78 1011.07 1011.22 1011.24 1011.29 1011.27 1011.13 1010.82 1010.15 1009.85
994.70 995.04 995.66 995.45 995.31 995.78 996.20 997.25 997.51 997.49 998.31 998.70 998.78 999.05 999.52 1000.00 1000.61 1001.04 1001.74 1002.70 1003.39 1003.98 1004.49 1004.93 1005.66 1006.31 1007.03 1007.84 1008.64 1009.08 1009.27 1009.83 1010.06 1010.50 1011.02 1011.19 1011.22 1011.11 1010.98 1010.73 1010.30 1009.86 1009.61 1009.57
994.77 994.94 994.82 994.97 995.92 996.31 996.77 997.19 997.54 997.91 998.18 998.58 999.10 999.61 999.95 1000.58 1001.17 1001.73 1002.46 1003.24 1003.74 1004.31 1004.75 1005.22 1005.88 1006.50 1007.42 1008.53 1009.07 1009.56 1010.19 1010.51 1010.56 1010.71 1010.83 1010.83 1010.60 1010.51 1010.34 1010.13 1009.68 1009.79 1009.82 1009.85
994.67 994.64 994.77 994.57 995.32 996.08 996.61 997.37 997.74 998.05 998.44 999.01 999.39 999.94 1000.26 1000.96 1001.80 1002.46 1003.16 1003.80 1004.63 1005.18 1005.59 1006.01 1006.63 1007.35 1008.20 1009.17 1009.80 1010.31 1010.57 1010.67 1010.77 1010.86 1010.65 1010.35 1010.57 1010.29 1010.17 1009.71 1009.46 1009.37 1009.55 1009.81
Thickness
5875 5858 5853 5877 5893 5887 5878 5874 5863 5863 5871 5866 5865 5864 5853 5858 5857 5849 5847 5842 5840 5838 5843 5844 5840 5838 5833 5826 5817 5812 5809 5806 5803 5799 5795 5795 5798 5803 5805 5804 5799 5797 5796 5794
5864 5849 5878 5891 5897 5884 5871 5873 5873 5870 5873 5870 5872 5866 5867 5859 5858 5861 5856 5851 5846 5845 5846 5844 5841 5840 5835 5827 5821 5814 5811 5807 5803 5803 5801 5801 5803 5805 5805 5807 5800 5797 5796 5794
5854 5869 5882 5883 5879 5871 5871 5874 5878 5863 5871 5882 5872 5862 5866 5867 5864 5868 5868 5865 5860 5853 5848 5848 5845 5842 5839 5831 5825 5819 5813 5810 5806 5807 5803 5798 5799 5799 5799 5801 5802 5801 5797 5795
5859 5879 5870 5870 5865 5875 5861 5895 5885 5862 5855 5853 5883 5794 5794 5860 5853 5860 5865 5866 5865 5860 5859 5859 5854 5846 5843 5837 5833 5826 5818 5814 5809 5807 5807 5800 5797 5796 5804 5806 5808 5806 5799 5795
5845 5857 5858 5852 5864 5875 5868 5892 5876 5871 5856 5867 5878 5859 5833 5866 5847 5858 5867 5871 5872 5870 5866 5860 5859 5856 5853 5847 5840 5833 5825 5818 5815 5809 5806 5804 5797 5804 5805 5805 5805 5801 5800 5796
5853 5874 5864 5863 5874 5878 5886 5876 5866 5866 5863 5839 5877 5873 5813 5799 5867 5874 5876 5880 5877 5876 5873 5869 5869 5867 5857 5855 5848 5841 5829 5822 5818 5813 5807 5805 5803 5801 5803 5803 5803 5804 5806 5803
5835 5845 5862 5867 5853 5873 5868 5851 5825 5824 5833 5837 5896 5871 5843 5817 5865 5889 5888 5889 5888 5885 5877 5873 5869 5868 5863 5856 5850 5844 5834 5823 5820 5817 5814 5809 5806 5803 5799 5797 5801 5803 5806 5808
5820 5812 5846 5865 5854 5854 5853 5853 5836 5808 5833 5857 5890 5848 5873 5880 5899 5899 5901 5906 5897 5890 5888 5881 5876 5873 5868 5862 5855 5846 5836 5828 5825 5822 5818 5815 5811 5809 5807 5806 5807 5809 5812 5810
5840 5834 5874 5866 5867 5864 5856 5838 5875 5861 5880 5864 5872 5873 5901 5906 5898 5897 5895 5901 5893 5894 5893 5888 5885 5881 5873 5865 5856 5848 5841 5834 5829 5826 5823 5820 5817 5814 5814 5811 5810 5809 5809 5814
5848 5819 5860 5859 5864 5867 5860 5883 5842 5856 5819 5821 5860 5862 5862 5876 5885 5896 5887 5892 5894 5896 5894 5893 5890 5886 5881 5870 5861 5852 5846 5836 5833 5832 5827 5825 5823 5818 5815 5814 5809 5810 5812 5810
5846 5836 5846 5852 5838 5842 5845 5842 5857 5873 5864 5833 5834 5854 5906 5892 5896 5895 5891 5895 5897 5897 5895 5895 5892 5889 5884 5873 5860 5849 5842 5839 5836 5836 5832 5821 5814 5816 5814 5813 5812 5809 5810 5809
5843 5843 5827 5835 5862 5868 5872 5856 5868 5840 5836 5858 5855 5857 5914 5900 5891 5893 5891 5892 5895 5901 5901 5898 5894 5887 5881 5871 5862 5855 5846 5842 5838 5833 5818 5808 5793 5809 5816 5814 5816 5813 5810 5810
5840 5821 5817 5837 5851 5862 5848 5859 5872 5878 5878 5853 5843 5858 5905 5899 5883 5886 5887 5884 5884 5890 5895 5896 5892 5879 5875 5868 5862 5854 5848 5841 5833 5824 5820 5818 5808 5808 5812 5816 5817 5816 5813 5812
5841 5836 5832 5830 5840 5858 5835 5844 5861 5867 5856 5862 5864 5868 5882 5879 5873 5875 5881 5884 5882 5884 5886 5890 5883 5872 5867 5863 5855 5850 5842 5837 5831 5828 5823 5823 5819 5816 5815 5816 5816 5814 5812 5810
5835 5819 5839 5852 5858 5861 5862 5851 5850 5852 5862 5854 5873 5871 5881 5887 5878 5876 5880 5881 5877 5879 5882 5878 5871 5863 5857 5851 5845 5841 5835 5833 5830 5823 5820 5817 5817 5816 5814 5812 5812 5811 5811 5810
5838 5816 5837 5834 5851 5849 5843 5860 5866 5861 5862 5867 5873 5868 5890 5886 5883 5877 5874 5873 5871 5875 5875 5873 5866 5857 5851 5845 5839 5835 5832 5829 5827 5821 5817 5817 5813 5813 5812 5810 5809 5809 5808 5806
5826 5831 5831 5816 5842 5842 5826 5851 5860 5864 5871 5868 5852 5869 5878 5871 5869 5868 5869 5872 5871 5873 5871 5864 5856 5853 5850 5844 5841 5835 5833 5830 5823 5819 5818 5815 5813 5811 5811 5811 5808 5806 5804 5805
5833 5838 5841 5827 5836 5794 5854 5883 5880 5867 5869 5877 5877 5866 5869 5866 5872 5874 5878 5874 5870 5868 5862 5859 5859 5854 5848 5848 5842 5837 5832 5826 5821 5818 5817 5815 5813 5810 5810 5808 5807 5807 5807 5804
5848 5841 5828 5820 5812 5840 5851 5859 5854 5849 5848 5875 5872 5875 5868 5869 5873 5865 5880 5879 5871 5867 5863 5864 5861 5853 5848 5835 5832 5832 5828 5823 5818 5814 5817 5816 5814 5810 5807 5804 5802 5802 5801 5801
5850 5849 5835 5829 5807 5800 5856 5876 5883 5872 5827 5876 5871 5869 5860 5864 5840 5851 5874 5875 5868 5864 5865 5862 5857 5845 5837 5837 5830 5827 5821 5818 5815 5815 5816 5814 5810 5806 5802 5801 5800 5799 5799 5798
5821 5832 5824 5817 5822 5841 5866 5871 5873 5814 5779 5831 5857 5861 5863 5855 5869 5869 5875 5869 5865 5863 5860 5860 5852 5843 5839 5837 5831 5823 5820 5813 5817 5817 5813 5810 5806 5802 5800 5797 5796 5794 5792 5792
5818 5814 5825 5832 5814 5811 5866 5860 5837 5825 5829 5842 5859 5858 5862 5869 5870 5868 5866 5859 5857 5854 5854 5852 5845 5839 5840 5836 5830 5822 5814 5816 5813 5809 5807 5801 5798 5797 5797 5791 5789 5788 5786 5786
5818 5842 5836 5847 5841 5862 5873 5859 5866 5857 5851 5854 5860 5867 5870 5864 5861 5860 5855 5853 5850 5848 5846 5847 5841 5833 5832 5828 5824 5815 5812 5812 5808 5802 5797 5794 5791 5789 5787 5783 5781 5782 5787 5786
5841 5848 5823 5829 5847 5851 5858 5859 5864 5869 5861 5864 5868 5865 5862 5854 5854 5853 5852 5846 5843 5843 5840 5841 5835 5827 5821 5820 5814 5809 5809 5804 5800 5793 5787 5785 5782 5782 5782 5783 5784 5786 5785 5781
5829 5840 5835 5833 5841 5849 5853 5858 5861 5863 5868 5866 5865 5861 5857 5852 5848 5847 5842 5836 5834 5832 5834 5835 5829 5824 5816 5810 5805 5803 5796 5792 5787 5784 5782 5780 5781 5778 5778 5779 5782 5778 5778 5775
5836 5831 5828 5832 5853 5847 5848 5857 5863 5858 5857 5859 5856 5852 5854 5850 5842 5841 5834 5833 5826 5823 5825 5822 5819 5813 5805 5798 5793 5789 5787 5784 5779 5775 5775 5776 5772 5773 5771 5772 5771 5775 5769 5766